CZ-6A DEB, 61370

Orbit data source: Space-Track

CZ-6A DEB, 61370 is space debris in LEO originally from a launch on Tue, 06 Aug 2024 UTC launched from the Taiyaun Space Center, China (TSC). Debris objects in space refer to the collection of defunct objects orbiting the Earth. Examples of debris include non-operational satellites, rocket bodies, and fragments generated from explosions, collisions, or faulty payload assembly.

Loading next visibility...
Identifier
61370, 2024-140WK
Orbit
LEO
Country
Flag of CNCN / PRC
Related business
Manufacturer
SAST
Mission
Spacecraft
Bus & Motor
Unknown
Mass
Unknown
Launch date (UTC)
2024-08-06 (2 years ago)
Launch vehicle
Unknown
Launch site
Taiyaun Space Center, China (TSC)
Object type
Payload
Rocket body
Debris
Shape & HBR
Unknown shape, 0.1 m
Radar Cross Section
Medium (>0.1 m² and <1 m²)

Expand to show TLE details & history
Last TLE update: 2 days ago

TLE from 2 days ago
0 CZ-6A DEB
1 61370U 24140WK  26170.26074578  .00001293  00000-0  86416-3 0  9996
2 61370  89.0137 279.4172 0233379 329.9222  28.8713 13.88220874 90466
Epoch: 2026-06-19T06:15Z
TLE epoch observation values (Epoch: 2026-06-19T06:15:28.435Z)
Latitude
-0°
Longitude
-81.94355°
Altitude
789.353 km
Speed
7.534 km/s
True Right ascension
18h 37m 40s
True Declination
0° 00' 00"
Sunlit
Object was in full shadow at epoch
Visualization orbit readout
Latitude
Unknown
Longitude
Unknown
Altitude
Unknown
Speed
Unknown
Apparent Right ascension
Unknown
Apparent Declination
Unknown
Sunlit
N/A
Visualization observer readout
Local Sidereal Time
08:33:03
Azimuth
Unknown
Elevation
Unknown
Doppler factor
Unknown
Orbital elements
Apogee altitude
1,102.467 km
Perigee altitude
761.267 km
Semi-major axis
7,310.004 km
Eccentricity
0.02334
Inclination
89.0137°
RAAN
279.4172°
Arg. of periapsis
329.9222°
True anomaly
30.19628°
Mean anomaly
28.8713°
Eccentric anomaly
29.53037°
Mean motion
3.4727 °/min
Orbital period
103.67 mins
BSTAR
0.00086416
Loading maneuver chart data...
Computing Atmospheric mass density...
Loading historical data...
Loading historical data...
Loading historical data...
Loading historical data...
Loading historical data...
Loading historical data...
Loading historical data...

Documentation

Showing up to 5 results
|